Wind_Speed
26 27 28 29 31 31 32 33 33 32 32 32 31 30 27 24 24 24 24 24 24 23 23 22 22 22 22 22 22 22 22 22 22 21 21 20 20 19 19 19 18 17 15 14 12 10 9 9 9 9 9 9 8 9 9 9 9 10 10 11 12 14 14 14 14 13 12 10 9 8 7 6 6 5 6 7 8 7 6 6 6 6 6 7 7
27 29 30 31 32 32 32 32 33 33 32 32 31 28 25 23 23 23 23 23 23 23 23 22 21 21 21 22 22 22 22 22 22 21 20 19 19 18 18 18 17 17 15 13 12 10 9 9 9 9 9 9 8 9 9 9 9 10 11 11 12 14 14 15 15 14 13 11 9 9 8 6 6 6 6 7 8 9 7 6 6 7 7 7 7
30 32 33 34 35 33 32 32 32 31 31 30 29 27 24 22 22 22 22 23 23 22 22 21 21 21 21 22 23 23 23 23 22 21 20 19 18 18 17 17 16 16 14 13 11 10 9 9 9 9 9 8 8 9 9 9 10 10 11 11 12 13 14 15 15 15 13 11 10 10 8 7 6 6 6 7 9 9 8 7 7 7 7 7 7
32 35 36 36 38 36 32 31 30 29 28 27 27 26 24 21 21 21 22 22 22 22 21 21 21 22 22 23 24 23 23 22 22 21 20 19 18 17 17 16 15 15 13 12 11 10 9 10 10 9 9 8 7 8 9 10 10 10 11 11 12 13 14 15 16 15 14 13 11 10 9 8 7 6 7 8 9 10 9 7 7 7 7 7 7
35 36 34 35 38 37 33 30 28 27 26 25 26 25 23 21 20 21 22 22 22 21 21 21 22 23 23 24 24 23 22 21 21 20 20 19 18 17 16 15 14 14 13 12 11 10 10 11 11 10 10 9 8 8 9 10 10 10 11 11 12 13 14 16 16 15 15 14 13 11 10 9 8 7 7 8 9 10 10 8 8 8 7 7 7
37 36 34 35 34 31 30 29 27 27 26 26 26 25 24 22 21 21 22 22 22 22 22 23 23 24 24 24 24 23 22 20 20 19 19 19 18 17 16 15 14 14 13 12 12 11 11 11 11 10 10 10 8 8 9 9 9 10 11 11 12 13 15 16 16 16 15 15 14 13 11 10 8 7 7 8 9 10 10 9 8 8 8 8 7
40 39 38 37 32 31 31 28 26 26 26 27 26 26 24 22 21 22 22 22 23 23 24 24 24 24 24 24 23 22 21 20 20 19 18 18 17 17 16 15 13 13 13 13 12 12 11 11 12 11 11 11 10 9 10 10 10 10 11 11 11 13 15 16 16 16 16 16 15 14 12 11 10 8 7 8 9 10 11 10 9 9 8 8 8
44 45 44 40 36 36 32 25 25 26 28 29 29 27 25 23 22 22 23 23 24 24 25 25 24 25 25 24 23 22 21 20 20 19 18 18 17 16 15 14 13 13 13 13 12 12 12 12 12 12 12 11 11 10 10 10 10 10 11 11 11 14 15 15 15 16 16 16 16 14 13 12 11 10 8 8 9 10 11 11 10 9 9 9 8
45 45 44 40 37 36 33 30 30 30 31 32 30 27 24 23 22 23 23 24 25 25 25 25 25 25 25 24 23 22 21 20 19 19 19 18 17 16 15 15 14 13 12 13 12 12 13 13 13 13 13 13 12 12 12 11 10 10 11 11 12 14 15 15 14 15 16 17 17 16 15 14 12 11 10 9 9 9 10 11 11 10 10 9 9
43 42 40 38 37 35 35 35 35 34 34 33 31 27 24 22 22 23 23 24 25 25 25 25 25 25 25 24 23 22 21 20 19 20 20 19 18 16 15 15 14 13 12 12 12 12 13 14 14 15 15 14 14 13 13 12 11 11 10 11 12 14 15 15 14 15 16 17 17 17 16 15 13 12 11 10 9 9 10 11 11 11 11 10 9
42 40 39 38 35 34 33 32 32 33 34 33 29 25 23 22 22 23 23 24 24 25 25 25 25 25 25 24 23 22 20 19 19 19 19 19 18 16 15 15 14 13 13 12 12 12 13 14 16 16 16 16 15 14 13 13 12 11 11 11 13 15 16 15 15 15 16 18 18 18 17 16 14 13 12 11 10 10 10 10 11 11 11 11 10
43 41 41 39 35 33 32 30 29 31 31 29 26 24 22 22 22 23 23 24 24 25 25 25 24 24 24 24 23 21 20 19 18 18 19 19 18 17 15 14 14 13 13 12 12 13 14 15 16 17 17 17 16 15 14 13 13 12 11 12 14 16 16 16 16 16 17 17 18 18 18 17 16 14 13 12 11 10 10 10 11 11 11 11 11
39 40 39 38 35 34 32 29 28 28 28 27 25 23 22 21 22 22 23 23 24 25 24 24 24 24 24 23 22 21 20 19 18 18 18 18 18 17 16 14 14 13 13 13 13 14 14 15 16 17 18 18 18 17 15 14 13 13 13 14 15 16 16 16 17 17 17 18 18 19 19 18 17 16 14 13 12 11 11 10 11 11 11 12 12
35 36 36 34 34 34 32 28 26 25 25 26 24 22 22 21 22 22 23 23 24 24 24 24 24 24 24 23 22 21 20 19 18 18 17 17 17 17 16 14 14 13 13 13 14 15 16 16 17 18 18 18 18 18 17 16 15 14 14 15 16 16 16 17 17 18 18 18 19 19 20 19 18 18 16 14 13 13 12 11 11 11 11 12 12
33 32 31 30 30 31 30 26 24 24 24 24 22 22 21 21 21 22 23 23 24 24 24 24 24 24 23 23 22 21 20 19 18 17 17 17 16 16 16 14 13 13 14 14 15 16 16 17 18 19 19 19 18 18 18 18 17 15 15 16 17 17 16 17 17 18 19 19 20 20 21 20 20 19 18 16 14 14 13 12 11 11 11 12 12
31 30 31 31 31 30 28 25 23 23 24 23 22 21 19 19 20 21 22 23 23 23 24 24 24 23 23 23 22 22 21 20 19 18 17 16 16 16 15 14 13 13 14 15 16 17 17 17 18 19 20 19 19 18 18 18 18 17 16 16 18 18 17 17 17 18 19 20 21 21 21 21 20 20 19 17 16 15 13 12 12 11 11 12 13
30 29 33 34 33 32 27 25 24 23 23 21 20 18 18 19 20 21 22 22 23 24 24 24 23 23 23 23 23 23 22 22 20 19 17 16 16 15 15 14 13 14 15 16 17 18 18 18 19 20 20 20 19 20 20 19 18 17 17 17 18 18 18 18 18 18 20 21 21 21 21 21 21 20 19 18 17 15 14 13 12 11 11 11 13
30 27 28 29 29 30 27 25 24 21 20 18 18 18 19 19 19 21 22 22 23 24 24 23 23 23 23 24 24 23 23 22 21 20 18 17 16 15 14 14 13 14 15 17 19 19 19 19 20 20 21 21 20 20 21 20 19 17 17 18 19 19 19 19 19 19 19 21 22 22 21 21 20 21 20 19 18 16 15 15 13 12 11 12 12
30 27 24 25 26 27 27 26 25 22 20 19 19 19 18 19 20 22 22 23 23 23 23 23 23 23 24 24 24 24 23 22 21 20 19 17 16 15 14 13 13 13 15 18 19 20 20 20 20 20 20 21 20 20 21 21 20 18 17 18 19 20 20 20 20 19 20 21 22 23 23 22 21 21 21 20 19 17 16 15 14 13 12 12 12
29 27 24 24 25 28 27 25 25 23 21 20 19 18 19 20 22 23 23 24 24 24 23 23 23 24 24 25 24 24 24 23 21 20 19 18 16 15 14 13 13 13 15 18 20 21 21 21 20 20 19 20 20 19 19 19 19 18 18 19 20 20 20 21 20 20 20 21 22 23 23 23 22 22 22 21 21 19 17 16 15 14 14 13 13
25 25 24 22 22 24 25 24 25 24 22 20 19 19 20 22 23 24 24 24 24 24 24 24 24 25 25 25 24 24 24 23 21 20 19 17 16 15 14 14 13 13 15 17 20 21 22 21 21 20 19 19 19 19 19 17 17 17 18 19 20 20 21 21 21 21 21 21 22 23 24 24 23 23 23 22 22 21 19 17 16 15 15 14 14
23 23 23 23 22 21 21 23 23 21 20 18 19 20 22 24 25 25 25 24 24 24 24 25 25 25 25 24 24 23 23 22 21 20 19 17 16 16 15 14 13 13 15 17 19 21 22 21 20 20 19 19 19 19 19 17 16 17 17 18 19 20 20 21 21 22 22 22 23 24 25 25 25 24 23 23 23 22 21 19 17 16 16 15 15
23 21 20 21 22 21 21 24 23 22 21 20 20 22 24 25 25 25 24 24 24 24 25 25 25 25 24 24 23 23 22 21 20 20 18 17 16 15 15 15 14 13 14 16 18 20 21 21 20 20 19 19 19 19 19 18 17 17 17 18 18 19 20 21 22 22 23 23 24 24 25 26 26 25 24 24 24 23 22 21 19 18 17 16 16
22 20 19 19 20 21 23 26 31 34 31 26 24 25 25 25 25 24 24 24 24 25 25 24 24 24 23 23 22 22 21 21 20 19 18 16 15 15 15 15 14 13 14 15 16 18 19 19 19 19 19 19 19 19 19 19 18 17 17 18 19 19 20 21 22 23 24 25 25 25 25 27 27 26 26 25 25 24 24 22 21 20 19 17 17
22 19 18 17 18 19 20 22 27 32 31 27 26 25 25 24 24 24 24 24 24 23 23 23 23 23 23 22 22 22 21 21 21 20 18 16 15 14 14 14 14 13 14 15 16 17 17 17 17 18 18 19 19 19 20 19 19 18 18 18 19 20 20 20 21 23 24 25 25 25 25 26 27 27 27 27 26 26 25 24 23 22 21 20 19
18 16 15 15 16 17 17 17 19 24 28 28 25 24 23 23 23 23 23 23 22 22 22 22 22 22 21 21 21 20 20 21 21 20 18 16 15 14 14 14 14 14 14 15 15 16 16 16 16 16 17 18 19 19 20 20 19 18 18 18 19 20 21 21 21 23 24 26 26 26 26 27 28 28 28 28 28 28 27 26 25 24 23 22 21
13 12 12 13 14 13 12 12 16 21 24 24 22 22 22 22 22 22 22 21 21 21 21 21 21 21 21 20 19 19 19 20 20 19 17 16 14 13 14 13 14 14 14 14 14 14 15 15 16 16 17 18 19 19 19 19 18 18 18 18 18 20 21 22 23 24 25 26 27 27 27 28 28 29 29 29 29 29 29 28 27 26 26 25 24
12 12 12 12 11 8 8 12 16 19 20 20 19 20 20 20 20 19 19 19 20 20 21 22 22 21 20 19 19 18 19 20 19 17 16 15 13 12 13 12 13 13 13 13 13 13 13 14 15 16 16 17 17 17 18 18 17 17 16 16 17 19 20 21 22 24 26 27 28 29 29 29 29 29 29 29 30 31 31 30 30 29 28 27 26
12 12 12 10 7 5 8 12 13 15 17 18 18 18 19 18 17 17 17 18 19 20 21 22 21 20 18 18 18 17 18 18 17 15 15 15 13 12 12 12 11 11 12 12 11 11 12 13 14 15 15 15 16 16 17 17 16 16 15 15 17 19 20 19 19 21 24 26 28 29 30 31 30 30 30 29 30 31 32 32 32 31 30 29 28
12 11 10 8 6 5 7 7 6 9 13 16 18 18 17 16 15 15 16 17 19 20 20 20 19 18 17 16 16 16 17 17 15 13 13 13 12 12 11 11 12 12 12 11 10 10 11 12 13 14 14 14 14 15 16 17 17 16 16 15 17 19 21 21 20 20 22 23 25 28 30 32 32 32 31 31 30 31 32 33 33 33 32 31 30
11 9 7 5 3 3 3 4 3 7 12 14 15 15 14 14 14 14 16 17 19 19 19 18 18 17 15 15 15 15 14 14 13 11 10 10 10 10 11 11 12 13 13 12 11 10 11 12 12 12 12 12 12 13 15 16 16 16 16 16 18 19 20 21 22 22 23 23 23 25 27 30 32 33 34 33 31 31 31 32 33 33 33 33 32
12 9 6 4 3 1 4 3 5 9 12 13 13 13 13 14 14 15 16 18 19 19 18 17 16 16 15 15 14 13 12 12 11 9 8 9 9 10 11 11 12 13 13 13 12 11 11 12 12 13 13 13 13 13 14 14 14 15 16 16 17 18 19 20 22 23 24 23 23 24 25 27 30 33 35 35 34 32 31 31 31 32 33 33 33
12 11 9 7 3 1 2 5 9 11 13 13 13 13 14 15 16 17 17 18 19 19 18 16 15 16 16 15 14 12 11 11 10 9 9 9 10 11 11 12 13 13 13 13 13 12 12 12 13 14 15 15 15 15 15 15 15 15 15 16 17 17 17 18 20 23 24 24 24 24 25 26 28 31 34 35 35 33 31 30 30 29 30 32 33
12 12 14 12 6 3 4 8 11 12 13 13 14 14 15 16 17 17 18 18 19 19 18 16 15 16 16 15 14 13 11 11 10 9 9 10 11 11 12 12 12 12 13 13 13 13 13 13 13 14 15 16 17 17 17 17 16 16 16 16 16 16 17 17 19 22 24 24 24 24 25 25 27 29 31 33 34 34 32 30 29 29 28 29 31
11 13 17 18 15 10 5 8 11 13 13 13 14 14 15 15 16 17 17 17 18 18 18 16 15 14 14 14 14 13 12 12 11 10 10 10 11 12 12 12 11 12 13 13 13 13 13 13 14 15 16 17 18 18 19 19 18 18 17 17 16 15 16 17 18 21 23 24 24 24 25 25 25 26 29 31 32 33 33 31 29 28 28 28 29
10 14 19 23 25 21 12 10 12 13 14 14 14 14 14 15 15 16 16 17 17 18 18 16 14 13 12 12 13 13 12 12 12 12 11 12 12 12 13 13 13 14 14 13 14 13 13 14 14 16 17 17 18 18 19 19 19 18 19 18 18 17 16 16 17 19 21 23 23 24 25 25 24 25 26 29 30 32 33 32 30 29 28 27 28
11 12 15 18 22 25 20 14 13 13 14 14 13 14 14 15 15 16 16 17 17 18 17 17 15 13 11 11 12 12 12 12 12 12 12 12 12 13 14 14 15 16 16 15 14 13 12 13 14 15 16 17 17 17 18 18 18 19 19 19 19 18 18 17 16 18 20 22 23 23 24 25 24 24 25 27 29 31 32 32 31 30 28 28 28
10 8 9 10 11 14 15 13 13 13 14 14 14 15 15 16 16 16 16 17 18 17 17 16 16 14 12 11 11 11 11 11 11 11 11 11 13 14 16 16 17 17 17 16 15 13 12 13 14 14 15 15 16 17 17 18 18 18 19 19 19 19 20 19 17 18 19 21 23 23 23 24 24 24 25 27 28 30 32 33 33 31 30 28 28
9 7 7 8 8 9 11 13 13 14 14 14 15 16 17 17 16 16 16 17 17 17 16 16 15 14 13 11 10 10 10 10 10 10 10 11 13 16 18 19 19 18 18 17 14 13 12 13 14 14 14 14 15 16 17 17 18 18 18 18 19 20 20 19 17 17 17 20 21 21 21 22 23 23 24 26 27 29 31 33 34 33 32 31 30
9 8 9 10 10 11 12 13 13 13 14 15 16 16 17 17 16 16 15 16 17 17 16 15 14 14 13 12 11 10 10 10 10 10 11 12 14 17 17 18 18 17 17 16 14 12 12 13 15 15 14 14 14 16 17 18 18 17 17 18 20 21 20 19 17 16 16 18 20 20 21 22 21 21 22 24 25 28 30 33 34 35 34 33 32
12 11 12 12 13 13 12 13 12 12 13 14 14 14 16 17 17 16 15 15 16 16 16 16 14 13 13 13 12 11 11 10 10 11 12 13 14 16 16 16 17 17 16 15 14 14 15 15 16 16 15 14 15 16 17 18 18 18 17 17 18 19 19 18 18 17 16 18 19 19 20 21 21 20 20 22 24 26 28 31 34 36 36 36 36
15 14 15 16 15 14 14 13 12 12 13 13 13 14 17 18 18 17 16 15 16 16 16 16 14 13 13 13 13 13 12 11 11 12 13 14 15 15 15 16 18 18 18 16 16 16 16 16 16 17 17 16 16 17 18 18 18 18 18 18 18 18 18 18 17 16 16 16 18 20 20 20 19 19 20 22 23 24 27 29 32 34 36 37 37
18 17 18 18 17 16 15 14 14 13 12 12 13 14 16 18 19 18 16 15 17 18 18 17 16 14 14 14 14 14 13 13 12 12 13 13 14 15 15 16 17 19 18 17 16 17 16 17 18 19 19 18 18 19 19 18 18 18 19 19 19 19 19 18 18 17 15 15 16 19 20 20 19 19 21 22 23 25 26 27 28 31 33 36 36
18 19 19 19 18 17 16 15 14 13 12 12 13 14 16 18 20 19 16 14 15 17 18 18 17 16 15 15 15 15 15 14 14 13 13 13 14 14 15 16 17 18 18 17 18 18 19 20 21 21 21 20 20 20 19 19 18 18 19 19 19 19 19 19 19 18 17 16 17 18 20 21 21 21 21 23 25 26 26 27 28 29 31 33 34
17 18 18 18 17 16 15 14 13 13 13 13 13 14 16 18 20 19 15 12 14 16 18 19 19 18 17 16 16 16 16 15 15 15 14 14 14 15 16 17 17 18 18 19 19 20 21 22 23 22 22 23 23 22 20 20 20 19 19 20 20 21 21 20 21 21 20 20 19 20 21 22 22 23 23 24 26 27 28 28 29 30 30 30 30
14 14 14 15 14 14 13 13 12 13 13 14 14 15 17 19 20 19 14 10 11 13 15 17 19 20 20 18 16 16 17 16 16 16 15 15 15 15 16 17 18 19 20 21 21 22 22 23 24 25 23 23 23 22 20 20 21 21 20 20 22 23 22 22 23 23 23 22 22 22 23 24 24 24 25 26 27 29 29 29 29 30 30 30 30
13 12 12 13 14 13 13 12 12 13 13 14 14 14 16 18 20 18 14 11 11 11 11 12 16 20 22 21 19 17 17 17 17 17 17 17 16 16 16 17 18 18 19 20 21 22 22 23 25 25 22 22 22 22 20 19 20 20 20 22 22 23 23 23 24 25 24 24 24 24 25 26 26 26 26 26 27 28 29 29 28 29 30 31 31
12 11 11 12 12 12 11 11 12 13 14 14 14 14 14 15 17 17 15 14 14 13 13 16 21 23 23 23 21 19 17 17 17 17 17 17 17 17 17 17 17 18 18 19 20 21 22 22 23 23 22 21 22 21 21 22 23 21 22 23 23 24 24 25 26 26 26 26 26 26 27 27 27 27 26 26 26 26 27 27 28 28 29 30 30
10 9 10 10 10 10 10 11 11 12 13 14 14 14 14 14 15 17 18 19 19 19 21 26 28 26 22 23 23 20 19 18 17 17 16 16 16 16 16 16 17 17 18 19 19 20 20 21 21 21 21 21 21 21 22 24 25 24 24 25 25 25 26 26 27 27 27 27 27 27 28 27 27 27 27 26 26 25 25 25 26 27 28 28 28
10 10 11 11 11 12 12 13 13 13 14 15 15 16 16 16 16 16 19 21 22 24 25 26 26 24 22 22 22 21 19 18 17 17 16 15 15 15 15 15 16 16 17 18 18 19 19 19 19 20 20 20 21 22 22 23 24 25 25 26 26 26 27 27 28 28 28 28 28 28 28 28 28 27 27 26 25 24 24 25 26 27 26 25 24
12 13 13 13 14 15 15 15 15 16 17 17 18 18 18 19 19 19 19 21 23 25 25 23 22 23 21 20 21 20 18 17 16 17 16 15 14 13 13 13 14 15 16 16 17 17 18 18 18 18 19 19 20 21 21 22 23 23 24 25 26 26 27 27 27 27 28 28 28 28 28 28 28 27 27 26 25 24 24 25 26 26 25 24 23
Wind_Direction
277 280 281 282 283 283 283 284 286 287 289 293 295 296 295 294 293 293 293 293 294 294 295 297 299 300 301 301 302 303 304 305 306 307 309 311 312 314 314 313 309 306 302 297 294 285 279 278 272 271 273 272 276 281 280 282 286 278 267 262 257 251 246 238 230 228 226 223 223 227 231 236 237 237 245 244 232 226 214 197 182 165 158 155 151
280 282 283 282 281 281 282 283 284 286 290 294 295 296 295 293 292 291 291 291 292 293 294 296 298 299 300 301 301 302 302 303 304 305 306 308 310 311 312 311 307 304 300 294 289 279 274 272 265 266 269 270 274 280 281 278 279 276 269 263 260 254 248 240 232 230 229 226 226 229 232 237 239 236 240 243 234 229 220 201 187 173 166 161 157
283 287 288 286 282 279 279 279 281 286 290 292 294 295 293 291 290 289 289 290 292 292 294 295 297 299 300 300 301 301 301 301 302 303 304 305 307 309 310 310 306 302 297 289 284 273 266 266 260 260 265 266 269 276 278 274 274 275 271 266 263 257 250 242 234 231 231 229 228 231 234 238 240 240 238 238 233 231 224 207 194 183 174 167 164
285 288 291 293 288 277 274 276 279 283 286 289 292 293 291 289 287 288 288 290 291 291 293 295 297 298 299 299 299 300 300 300 300 301 301 303 305 307 309 309 304 299 292 284 278 267 258 260 255 255 260 262 262 268 274 271 271 273 271 267 264 259 251 244 236 232 232 231 230 232 236 239 241 241 241 238 232 232 229 215 201 192 183 176 172
282 286 290 296 290 276 271 275 276 279 281 286 289 291 289 287 286 287 287 288 288 289 291 293 296 297 298 297 297 298 299 300 299 299 300 301 303 305 306 305 301 295 288 278 272 263 253 254 252 252 254 256 256 261 269 270 268 270 270 266 262 260 253 245 238 233 232 233 232 233 237 241 244 241 241 241 233 232 233 224 210 201 192 185 180
281 283 287 293 288 277 277 275 275 276 277 283 287 289 288 286 286 285 285 285 286 287 290 293 295 296 296 295 296 297 298 298 297 296 297 298 299 301 302 301 297 291 283 273 267 259 251 250 249 248 250 251 251 254 262 266 264 265 268 266 262 260 256 248 240 234 232 234 234 235 238 242 246 245 242 243 238 233 234 232 221 210 201 194 188
280 281 284 286 281 282 284 276 273 274 275 279 283 285 286 285 284 283 283 283 285 287 291 293 294 294 294 294 294 295 296 295 294 293 293 294 295 296 297 296 293 286 279 270 263 255 247 245 245 244 247 249 248 249 255 261 260 261 265 266 262 260 257 251 243 236 233 235 236 237 239 242 246 248 245 244 243 237 234 234 230 221 211 202 195
280 280 281 280 275 278 280 274 274 275 275 278 279 282 282 282 281 281 281 283 286 288 291 292 293 293 293 293 293 294 294 292 291 291 291 291 291 292 293 293 289 282 275 269 261 252 243 240 241 242 244 246 246 246 250 255 256 259 262 265 262 258 257 254 247 238 234 235 237 239 240 242 245 248 248 246 245 243 239 236 235 230 222 211 204
278 278 277 275 272 272 271 273 278 278 277 276 276 278 278 278 278 278 280 283 287 289 291 292 293 293 293 293 292 293 293 291 289 289 289 289 288 289 290 289 286 279 272 266 258 250 240 236 236 239 240 242 243 243 246 249 253 257 260 263 263 258 258 258 250 241 236 236 237 239 240 242 245 247 249 249 247 246 244 240 237 236 232 222 213
276 275 274 271 269 269 270 274 277 277 277 274 271 273 274 274 275 276 279 283 287 290 292 294 294 294 293 292 292 292 291 289 287 287 287 287 286 286 287 286 283 276 269 262 254 246 237 234 234 235 238 239 240 241 242 244 248 253 257 262 262 258 258 259 254 245 239 237 238 240 241 244 245 247 250 252 252 249 248 246 240 238 238 233 223
273 272 272 273 273 272 272 276 278 274 269 266 266 270 270 270 272 274 278 283 287 290 293 294 294 292 291 290 291 290 289 287 286 285 286 286 285 283 283 283 280 273 266 258 250 243 234 232 233 234 236 238 239 239 239 240 243 247 252 258 258 257 258 258 256 250 243 240 239 240 243 245 247 249 251 253 254 253 252 251 245 241 240 239 234
269 268 270 273 273 274 274 276 277 272 265 265 268 267 265 266 269 273 277 282 286 289 291 291 290 289 289 288 288 287 285 285 284 284 285 285 283 281 280 280 277 270 262 254 246 240 234 232 234 234 235 237 238 238 237 237 239 241 247 251 253 256 258 257 255 253 247 243 241 242 244 247 249 250 252 253 255 255 253 253 250 244 241 241 240
273 268 271 274 267 264 270 273 274 272 272 271 266 260 258 261 264 269 275 280 284 286 287 286 286 286 286 286 285 285 284 283 282 282 282 283 283 281 280 278 275 268 260 251 244 239 234 233 236 236 237 237 237 237 236 236 236 237 241 246 249 253 256 255 254 254 251 246 244 244 245 247 249 250 251 252 254 256 255 254 253 248 243 241 240
279 272 274 274 260 254 259 261 263 266 267 264 258 252 251 254 259 266 273 277 281 282 282 282 283 283 283 284 284 283 283 282 282 280 280 282 282 281 280 278 274 266 257 251 245 239 234 232 235 237 238 238 238 238 236 235 232 232 236 242 246 249 251 252 252 254 253 250 247 246 246 248 248 249 250 251 252 255 256 254 253 251 246 242 240
278 274 274 269 258 255 255 249 249 252 251 250 247 245 246 251 259 265 270 274 277 278 279 280 280 281 282 282 282 281 280 280 281 280 280 281 281 281 280 277 272 263 253 248 247 244 238 234 235 239 241 239 239 239 237 234 231 230 233 239 244 246 246 247 249 251 254 252 249 248 248 249 249 250 250 251 251 253 256 256 253 252 248 245 240
273 272 272 266 260 259 253 242 237 239 240 240 240 240 245 252 258 264 268 272 274 275 276 277 277 278 279 279 279 277 277 278 279 280 280 281 281 280 279 276 269 259 249 244 244 246 245 241 238 241 244 242 239 238 237 234 229 227 230 236 240 242 242 242 244 247 251 253 252 251 251 252 253 253 253 254 253 252 255 256 255 252 250 247 243
268 267 270 265 257 252 246 236 228 231 234 234 235 236 242 250 257 263 266 269 271 272 272 273 274 275 275 275 276 275 275 277 279 280 281 281 280 278 277 274 267 257 247 241 240 243 245 245 244 244 246 246 242 239 238 236 230 226 228 234 238 239 239 240 240 242 246 251 253 252 252 253 255 257 257 257 257 255 255 256 255 253 251 249 246
261 262 270 264 253 246 242 235 227 226 227 227 229 234 241 249 256 261 263 265 266 267 269 270 271 271 271 273 274 274 275 277 279 281 282 282 279 276 273 270 265 256 246 240 238 240 243 244 244 245 246 247 246 242 239 237 232 226 226 232 237 237 238 239 238 238 242 248 252 252 251 252 254 257 258 259 258 256 255 255 254 253 252 249 247
258 256 267 265 254 246 243 239 232 226 224 224 227 233 242 250 255 257 259 260 261 263 265 266 267 268 270 271 272 273 276 278 281 283 283 283 280 275 270 266 261 253 244 238 237 239 242 242 242 243 244 246 247 244 240 238 233 227 226 230 235 237 237 237 237 238 240 243 248 251 251 251 252 255 258 259 259 257 254 253 252 251 251 249 247
260 258 268 270 256 246 245 243 236 228 221 219 225 234 244 250 252 253 254 256 257 260 262 263 264 267 269 270 273 275 277 280 283 284 284 283 281 277 270 263 256 249 243 237 235 238 241 242 242 242 242 244 247 246 243 239 233 225 224 228 232 235 237 237 238 238 238 240 244 249 251 251 251 253 256 259 260 259 256 252 251 249 249 249 247
266 260 263 269 266 255 249 247 242 231 217 218 228 238 244 247 248 250 251 253 256 259 260 262 263 266 268 271 274 276 278 281 284 284 284 284 284 281 274 264 254 246 243 239 236 236 239 241 242 243 243 245 247 248 247 243 235 224 221 226 230 233 236 237 238 238 237 239 242 245 249 250 249 250 253 256 259 260 259 255 252 249 248 248 247
275 269 263 265 276 275 260 252 243 227 220 227 235 237 240 242 244 246 249 251 255 257 259 261 263 265 267 271 273 276 278 282 284 284 284 285 286 285 277 266 255 245 241 240 239 237 238 240 242 244 246 246 247 249 250 247 237 223 217 223 228 231 235 237 237 237 236 237 239 243 247 248 248 248 248 252 255 258 259 257 254 251 249 248 248
282 281 279 272 276 285 278 264 244 235 248 249 237 233 235 238 241 244 247 249 252 256 258 260 262 265 267 270 273 276 279 282 283 284 284 285 288 285 277 267 257 247 240 239 240 240 240 241 242 243 246 247 247 248 249 246 237 224 215 217 224 229 233 236 237 237 237 236 236 240 245 247 247 247 246 247 251 254 256 257 255 252 250 248 248
286 287 290 284 283 292 293 281 259 255 265 258 237 233 234 237 240 242 245 249 252 255 257 260 262 266 269 272 274 276 278 280 281 282 283 286 289 284 275 267 258 248 242 238 240 242 243 243 243 243 245 246 246 246 245 242 235 225 216 214 218 224 231 236 238 238 237 236 236 238 242 247 247 247 247 245 247 250 253 254 254 252 250 248 247
290 293 296 293 290 292 295 293 274 265 268 259 243 236 235 237 239 242 247 250 253 255 258 262 265 269 271 274 275 276 278 278 278 279 280 285 288 283 274 267 260 252 246 243 243 245 247 247 245 244 244 243 242 242 241 239 234 227 219 214 214 219 227 234 238 240 239 237 237 238 241 245 247 247 247 246 245 246 249 251 252 252 250 248 246
300 302 300 292 287 285 287 294 287 277 274 264 250 240 239 240 242 246 249 252 254 257 260 264 267 270 272 274 276 277 278 279 279 278 279 283 286 281 275 269 263 257 251 247 245 246 247 248 246 244 242 240 239 240 240 240 237 232 225 218 216 219 224 229 235 239 241 239 238 238 240 244 247 247 246 247 246 244 245 247 249 251 251 249 246
315 308 298 289 279 274 281 291 293 286 276 263 253 248 247 248 249 251 252 254 256 258 262 265 267 269 273 277 278 278 279 279 279 277 277 280 282 278 274 270 264 258 253 249 244 244 247 248 246 243 240 238 240 241 243 244 242 237 230 222 218 221 225 227 229 233 238 240 238 237 238 241 245 247 246 246 247 247 245 245 247 249 250 250 248
312 305 303 296 273 256 276 289 288 281 269 258 254 253 253 253 254 255 256 257 258 260 262 265 268 272 276 279 280 278 277 277 277 275 273 276 277 275 271 267 262 256 251 247 244 245 247 248 248 243 239 237 239 242 243 245 244 240 234 225 220 223 228 230 229 230 234 236 236 236 237 239 242 244 245 245 247 248 246 245 245 247 248 249 248
304 304 310 303 270 262 289 288 283 274 262 255 252 250 251 252 254 255 256 257 259 262 263 266 271 275 277 277 277 277 275 273 272 272 272 274 273 270 268 264 260 254 247 245 245 248 252 252 249 245 241 237 238 240 242 244 246 247 243 234 228 228 230 232 232 231 233 234 235 236 236 236 238 242 245 245 245 247 247 246 245 246 247 247 248
294 297 303 298 287 287 293 299 300 274 261 255 251 248 247 249 251 253 256 260 263 265 266 270 272 272 272 273 274 273 270 264 262 266 272 273 269 264 261 260 258 252 246 243 246 250 256 257 255 252 248 240 235 237 240 244 249 252 251 246 239 235 233 234 234 233 233 234 235 236 236 236 237 239 243 245 245 245 246 247 246 246 247 248 249
279 282 283 278 266 277 332 352 317 258 252 252 249 247 249 252 254 257 260 264 266 268 270 271 270 268 267 268 269 268 266 259 254 259 265 265 260 254 251 252 252 249 244 241 242 247 253 257 258 257 251 244 237 238 242 246 250 253 253 251 247 243 238 236 236 236 236 235 236 237 238 237 238 239 241 244 245 245 246 247 248 248 248 249 250
264 262 247 217 207 279 15 345 258 248 250 253 254 256 258 260 261 261 261 262 265 268 269 268 265 263 260 260 262 262 260 260 258 253 252 250 244 242 243 245 244 242 239 235 235 240 246 251 255 256 255 255 253 251 249 250 253 255 255 254 252 250 245 241 240 241 242 240 239 239 239 238 239 240 242 243 245 245 246 247 248 248 249 250 251
261 252 230 220 210 32 341 257 250 254 255 257 259 260 261 262 261 260 258 259 262 265 265 264 258 255 253 254 256 253 250 253 252 239 235 235 233 234 236 239 238 234 231 229 229 231 238 246 253 256 258 259 261 260 259 257 258 259 260 259 258 256 251 246 243 243 245 244 242 241 242 241 240 240 241 244 245 245 246 246 248 249 249 250 251
256 247 236 234 220 187 239 257 261 261 258 257 255 256 259 261 260 258 256 256 259 262 262 260 253 251 251 251 252 249 244 244 238 226 225 224 222 226 228 229 229 226 223 223 224 226 234 242 249 254 256 257 259 262 263 263 261 261 263 263 261 259 255 251 245 244 244 245 244 243 244 244 243 241 241 243 245 245 245 245 247 249 249 250 251
250 243 237 234 228 217 228 261 268 269 265 258 253 254 259 263 262 260 257 256 258 261 262 260 255 252 251 250 249 245 239 236 232 225 222 219 216 218 219 216 214 213 215 217 220 224 233 242 245 249 250 251 253 258 261 262 261 261 263 261 259 259 260 257 251 247 245 245 244 243 244 246 246 245 242 242 243 243 243 244 245 247 248 249 250
256 248 240 239 236 234 243 266 271 269 267 261 257 259 262 266 267 265 263 262 262 263 264 264 262 258 255 253 252 248 240 232 229 226 222 220 217 214 212 210 208 208 209 212 221 225 231 240 244 247 248 248 250 252 255 258 259 260 262 260 258 260 261 260 258 253 250 248 246 245 245 247 249 250 247 244 243 243 243 242 243 246 247 247 249
271 263 255 252 243 237 246 267 272 265 265 264 262 264 266 267 268 268 267 266 265 264 264 265 265 262 258 254 255 254 246 236 232 228 226 224 219 215 213 212 211 210 208 211 221 226 229 238 242 244 247 250 252 253 253 254 257 260 261 260 259 260 259 257 256 255 252 251 251 249 248 248 250 252 252 248 244 243 242 241 243 245 248 249 250
270 266 263 267 255 243 250 265 267 263 264 265 265 266 266 266 266 268 269 268 267 266 266 267 268 267 262 255 254 256 253 245 238 234 231 227 223 219 214 215 214 211 211 215 220 224 228 235 240 241 244 248 251 253 253 252 253 255 257 257 256 256 257 255 253 253 254 253 252 251 249 249 251 252 251 248 245 243 241 239 241 245 248 250 252
255 247 249 257 261 257 257 261 263 263 264 265 266 266 267 267 267 269 270 270 269 268 268 268 269 270 267 262 257 257 257 251 244 239 232 227 227 223 217 219 219 215 220 227 223 220 227 235 240 241 241 243 246 249 251 251 250 250 251 252 251 251 254 257 257 256 257 256 253 253 250 249 251 252 251 248 245 243 241 238 240 243 246 249 252
242 242 246 248 250 252 257 262 263 261 260 262 264 268 271 273 273 273 272 271 270 267 264 263 264 267 269 268 264 261 260 256 248 239 231 230 229 227 224 226 225 221 228 236 228 220 226 235 240 242 239 239 242 245 247 247 247 246 246 248 249 250 251 256 259 257 256 256 257 256 253 251 252 252 254 252 246 243 241 239 239 242 244 247 250
240 240 246 248 248 250 256 261 261 257 257 261 266 271 275 276 278 280 280 278 274 269 266 262 262 264 266 268 268 265 262 258 253 243 235 233 231 231 233 233 230 226 227 231 227 223 225 229 236 240 239 236 239 242 243 244 244 243 242 244 246 247 246 249 253 255 256 257 257 255 252 251 251 252 254 253 248 244 242 241 240 242 244 247 249
248 249 251 252 250 250 252 256 256 256 259 266 270 272 274 277 281 284 285 285 284 283 278 272 267 265 266 268 268 267 263 259 256 249 242 237 234 233 233 231 228 224 223 224 226 229 231 231 234 238 237 234 236 239 240 241 241 239 239 240 243 243 243 245 249 255 258 257 255 253 251 250 249 250 251 252 250 246 244 243 243 244 245 248 250
255 255 254 251 249 249 251 253 253 255 260 266 269 271 272 276 280 282 284 288 291 292 289 283 278 271 267 266 264 263 261 258 255 250 246 243 241 239 237 234 229 226 225 225 227 232 236 238 237 237 238 235 236 240 242 243 241 237 237 239 241 243 244 246 250 255 258 254 249 247 248 249 248 247 248 249 250 249 247 245 246 248 248 248 250
255 254 253 251 251 252 253 254 252 256 263 266 267 267 267 271 275 278 281 285 290 293 293 291 287 281 273 266 263 260 255 251 248 248 246 242 242 242 241 240 238 236 234 232 231 232 235 238 239 239 239 239 238 240 243 244 242 238 239 241 242 245 247 250 252 254 255 253 247 243 242 245 246 246 245 246 246 247 247 247 247 249 251 251 252
258 257 257 257 258 258 259 258 257 262 269 271 270 268 265 265 269 274 277 282 292 297 298 296 293 289 283 272 265 261 255 247 242 242 243 241 240 239 239 240 240 241 240 237 235 235 235 238 240 239 238 240 241 241 240 243 244 241 242 246 246 247 248 251 254 254 255 256 254 251 248 247 248 248 248 247 247 246 245 246 247 250 252 253 255
265 262 261 261 261 262 262 264 268 271 273 274 274 274 271 266 265 268 271 275 287 297 298 299 300 297 292 283 273 267 262 254 245 240 238 237 237 236 237 238 239 239 239 238 237 236 235 236 239 238 237 237 240 243 242 242 245 245 246 250 251 252 251 252 255 256 257 258 259 259 258 257 256 255 253 251 250 249 247 246 247 250 253 255 257
262 260 260 260 261 264 267 272 276 275 273 274 275 278 280 276 266 260 262 264 268 274 279 291 302 302 297 290 282 275 269 262 254 245 239 236 234 234 236 236 238 239 239 239 237 237 235 234 238 240 240 239 239 244 245 242 243 246 248 250 251 252 254 255 256 258 259 260 261 261 261 261 261 259 257 255 253 252 251 250 250 251 254 257 258
255 257 259 262 266 269 274 278 277 276 274 274 277 280 287 287 270 256 260 269 272 271 273 284 296 300 296 289 282 275 269 264 258 249 242 238 236 234 235 236 238 240 240 240 239 238 236 235 238 241 242 242 242 245 246 246 249 251 251 252 252 251 254 255 256 258 260 261 261 262 262 262 263 262 260 258 257 255 254 254 253 254 257 257 255
250 254 259 264 268 273 276 278 278 280 280 279 281 282 282 283 273 262 264 271 275 276 280 288 293 296 293 284 276 269 263 260 257 251 243 238 236 235 235 236 238 240 241 242 242 241 240 238 239 241 242 244 245 246 246 248 252 254 253 255 256 255 255 256 257 258 259 260 262 262 263 263 264 263 262 261 260 258 256 253 253 256 258 257 255
255 258 259 261 266 271 273 276 279 282 284 282 281 280 277 276 274 271 270 272 274 277 283 288 291 294 293 281 272 264 258 255 254 251 245 238 235 234 235 236 239 240 242 244 245 245 244 243 242 242 243 244 245 246 247 249 252 254 255 257 257 257 257 258 258 259 260 261 262 262 263 263 263 262 263 263 262 260 256 251 252 255 255 253 254
264 263 263 266 270 273 275 277 279 279 280 279 278 278 276 275 277 278 279 280 280 281 286 290 292 296 292 278 271 265 256 253 252 249 244 240 237 234 234 236 239 241 243 244 245 245 245 246 246 246 246 247 248 249 250 252 253 255 256 257 258 259 259 260 261 262 263 263 264 264 264 263 263 263 263 263 261 259 254 249 249 251 250 248 251
Height
5849 5849 5849 5849 5848 5847 5847 5846 5845 5845 5845 5845 5846 5846 5845 5845 5845 5845 5845 5845 5845 5844 5844 5844 5843 5843 5842 5842 5841 5841 5841 5840 5840 5840 5839 5839 5838 5838 5837 5837 5836 5836 5836 5835 5835 5835 5835 5835 5835 5835 5835 5836 5837 5837 5838 5839 5840 5840 5840 5840 5840 5840 5841 5841 5841 5842 5842 5842 5843 5843 5843 5843 5843 5843 5844 5844 5844 5845 5845 5845 5845 5844 5844 5844 5844
5847 5847 5847 5847 5846 5846 5845 5844 5843 5843 5843 5844 5844 5844 5844 5844 5844 5844 5844 5844 5844 5843 5843 5843 5843 5842 5842 5841 5840 5840 5840 5839 5839 5838 5838 5838 5838 5837 5837 5836 5836 5835 5835 5834 5834 5834 5834 5834 5835 5835 5835 5836 5837 5837 5838 5839 5839 5840 5840 5840 5840 5840 5840 5841 5841 5841 5842 5842 5843 5843 5843 5843 5843 5843 5843 5844 5844 5845 5845 5845 5845 5845 5844 5844 5845
5846 5845 5845 5845 5845 5844 5844 5842 5842 5842 5842 5843 5843 5843 5843 5843 5843 5843 5843 5843 5842 5842 5842 5842 5842 5841 5841 5840 5840 5839 5838 5838 5837 5837 5837 5836 5836 5836 5836 5835 5835 5834 5834 5834 5833 5834 5834 5834 5834 5834 5835 5836 5837 5837 5838 5838 5839 5839 5839 5839 5839 5839 5840 5840 5840 5841 5842 5842 5842 5843 5843 5843 5843 5843 5843 5844 5844 5845 5845 5845 5845 5845 5845 5845 5845
5844 5844 5843 5843 5842 5842 5842 5841 5841 5841 5841 5841 5842 5842 5842 5842 5842 5842 5842 5842 5841 5841 5841 5841 5841 5841 5840 5839 5839 5838 5837 5836 5836 5835 5835 5835 5835 5835 5835 5834 5834 5833 5833 5833 5833 5833 5833 5833 5834 5834 5835 5835 5836 5837 5837 5838 5838 5839 5839 5839 5839 5839 5839 5839 5840 5841 5841 5842 5842 5843 5843 5843 5843 5843 5843 5844 5844 5844 5845 5845 5845 5845 5845 5845 5845
5842 5842 5842 5841 5839 5840 5840 5840 5839 5839 5840 5840 5841 5841 5841 5841 5841 5841 5841 5841 5841 5840 5840 5840 5840 5840 5839 5838 5837 5836 5836 5835 5834 5834 5833 5833 5833 5833 5833 5833 5833 5832 5832 5832 5832 5832 5833 5833 5833 5834 5834 5835 5836 5836 5837 5837 5838 5838 5838 5838 5838 5838 5838 5839 5839 5840 5841 5841 5842 5842 5843 5843 5843 5843 5843 5843 5844 5844 5845 5845 5845 5845 5845 5845 5845
5840 5840 5839 5839 5837 5838 5838 5838 5838 5838 5838 5839 5839 5839 5839 5840 5840 5840 5840 5840 5840 5840 5839 5839 5839 5839 5838 5837 5836 5835 5834 5834 5833 5833 5832 5832 5832 5832 5832 5832 5832 5831 5831 5831 5831 5832 5832 5832 5833 5833 5834 5835 5835 5836 5836 5837 5837 5838 5838 5838 5838 5838 5838 5838 5839 5840 5840 5841 5841 5842 5842 5843 5843 5843 5843 5843 5844 5844 5844 5845 5845 5845 5845 5845 5845
5837 5837 5837 5837 5836 5836 5837 5837 5837 5837 5838 5838 5838 5838 5838 5839 5839 5839 5839 5839 5839 5839 5838 5838 5838 5837 5836 5835 5835 5834 5833 5833 5832 5832 5831 5831 5831 5830 5831 5831 5831 5830 5830 5830 5831 5831 5831 5832 5832 5833 5834 5834 5835 5835 5836 5836 5837 5837 5837 5837 5838 5837 5837 5837 5838 5839 5840 5840 5840 5841 5842 5842 5842 5843 5843 5843 5844 5844 5844 5844 5845 5845 5845 5845 5846
5834 5834 5835 5835 5834 5835 5835 5835 5836 5836 5836 5836 5837 5837 5837 5837 5837 5838 5838 5838 5837 5837 5837 5837 5836 5835 5835 5834 5833 5833 5832 5831 5831 5831 5830 5830 5829 5829 5829 5829 5830 5830 5830 5830 5830 5830 5831 5832 5832 5832 5833 5834 5834 5835 5835 5836 5836 5837 5837 5837 5837 5836 5836 5837 5838 5839 5839 5839 5840 5840 5841 5841 5842 5842 5843 5843 5843 5844 5844 5844 5845 5845 5845 5845 5846
5831 5831 5831 5832 5833 5833 5834 5834 5834 5835 5835 5835 5835 5835 5835 5836 5836 5836 5836 5836 5836 5836 5835 5835 5834 5834 5833 5832 5832 5831 5831 5830 5830 5829 5829 5829 5828 5828 5828 5828 5828 5829 5829 5829 5830 5830 5830 5831 5831 5831 5832 5833 5833 5834 5835 5835 5836 5836 5837 5837 5837 5836 5835 5836 5838 5838 5839 5839 5839 5840 5840 5840 5841 5841 5842 5843 5843 5844 5844 5844 5844 5845 5845 5845 5846
5828 5828 5828 5829 5830 5831 5832 5832 5832 5833 5832 5833 5833 5834 5834 5834 5835 5835 5835 5835 5835 5834 5834 5833 5833 5832 5831 5831 5830 5830 5829 5829 5828 5828 5827 5827 5827 5827 5827 5827 5827 5827 5828 5828 5829 5829 5829 5829 5830 5830 5831 5831 5832 5833 5834 5834 5835 5836 5837 5837 5837 5836 5835 5836 5837 5838 5838 5838 5838 5839 5839 5840 5840 5841 5841 5842 5843 5843 5844 5844 5844 5845 5845 5845 5846
5825 5825 5825 5826 5828 5829 5830 5830 5831 5830 5830 5830 5831 5832 5833 5833 5833 5834 5834 5833 5833 5833 5832 5832 5831 5830 5830 5829 5829 5828 5828 5828 5827 5827 5826 5826 5826 5826 5826 5826 5826 5826 5826 5827 5827 5828 5828 5828 5828 5829 5829 5830 5831 5832 5833 5834 5835 5835 5836 5837 5836 5835 5835 5836 5836 5837 5837 5837 5838 5838 5838 5839 5839 5840 5841 5841 5842 5843 5843 5844 5844 5844 5845 5845 5846
5821 5822 5822 5823 5826 5827 5827 5828 5828 5827 5827 5828 5829 5830 5831 5831 5832 5832 5832 5832 5831 5831 5830 5830 5829 5828 5828 5827 5827 5827 5827 5827 5826 5826 5825 5825 5824 5824 5825 5825 5824 5824 5825 5825 5826 5826 5827 5827 5827 5827 5828 5829 5830 5831 5832 5833 5834 5835 5836 5836 5835 5835 5835 5835 5835 5836 5836 5837 5837 5837 5838 5838 5839 5839 5840 5841 5841 5842 5843 5843 5844 5844 5844 5845 5846
5820 5821 5821 5821 5822 5823 5824 5825 5825 5825 5825 5825 5826 5827 5828 5829 5829 5830 5830 5830 5829 5829 5828 5828 5827 5826 5826 5825 5825 5825 5825 5825 5825 5825 5824 5824 5823 5823 5823 5823 5823 5823 5823 5824 5824 5825 5825 5826 5826 5826 5826 5827 5829 5830 5831 5832 5833 5834 5835 5835 5834 5834 5835 5835 5835 5835 5836 5836 5836 5837 5837 5837 5838 5838 5839 5840 5840 5841 5842 5843 5843 5844 5844 5844 5845
5820 5820 5819 5818 5817 5817 5817 5820 5821 5821 5822 5822 5823 5824 5825 5826 5827 5827 5827 5827 5827 5827 5827 5826 5825 5825 5824 5824 5824 5824 5824 5823 5823 5823 5823 5822 5822 5822 5822 5822 5822 5822 5822 5823 5823 5823 5824 5824 5825 5824 5825 5826 5827 5828 5829 5831 5832 5833 5834 5834 5834 5834 5834 5834 5835 5835 5835 5835 5836 5836 5836 5836 5837 5837 5838 5839 5840 5840 5841 5842 5843 5843 5844 5844 5845
5818 5817 5817 5816 5815 5814 5812 5813 5816 5817 5818 5819 5821 5822 5823 5824 5825 5825 5825 5825 5825 5825 5825 5824 5824 5823 5823 5822 5822 5822 5822 5821 5821 5821 5821 5821 5821 5821 5821 5821 5821 5821 5821 5821 5822 5822 5823 5823 5823 5823 5823 5825 5826 5827 5827 5829 5830 5832 5833 5833 5833 5833 5833 5833 5834 5834 5834 5835 5835 5835 5835 5836 5836 5837 5837 5838 5839 5840 5840 5841 5842 5843 5843 5844 5844
5815 5815 5814 5813 5813 5813 5811 5810 5812 5814 5815 5817 5818 5820 5821 5822 5823 5823 5823 5823 5823 5823 5823 5822 5822 5821 5821 5820 5820 5819 5819 5819 5819 5819 5819 5819 5819 5819 5819 5820 5820 5819 5819 5820 5820 5821 5822 5822 5822 5822 5822 5823 5825 5825 5826 5827 5829 5831 5832 5832 5832 5832 5832 5833 5833 5834 5834 5834 5834 5835 5835 5835 5836 5836 5837 5838 5839 5839 5840 5841 5841 5842 5842 5843 5843
5812 5813 5810 5809 5810 5811 5810 5809 5809 5811 5813 5815 5816 5817 5819 5820 5821 5821 5821 5821 5821 5820 5820 5820 5820 5819 5819 5818 5818 5817 5817 5817 5817 5817 5817 5817 5817 5817 5818 5818 5818 5818 5818 5818 5819 5820 5820 5821 5821 5821 5821 5821 5823 5824 5824 5825 5828 5830 5831 5831 5831 5831 5831 5832 5832 5833 5833 5833 5834 5835 5835 5835 5836 5836 5836 5837 5838 5839 5839 5840 5841 5841 5842 5842 5843
5810 5810 5808 5807 5807 5809 5810 5808 5808 5809 5811 5812 5814 5815 5817 5818 5818 5818 5819 5818 5818 5818 5818 5818 5817 5817 5816 5816 5816 5815 5815 5815 5815 5815 5815 5815 5815 5815 5816 5816 5816 5817 5817 5817 5818 5818 5819 5820 5820 5820 5820 5820 5821 5822 5823 5824 5826 5829 5830 5830 5830 5830 5830 5831 5831 5831 5832 5832 5833 5834 5834 5835 5835 5836 5836 5836 5837 5838 5838 5839 5840 5841 5841 5842 5842
5807 5808 5808 5806 5805 5807 5808 5807 5807 5807 5808 5810 5812 5814 5815 5815 5816 5816 5816 5816 5816 5815 5816 5816 5815 5815 5814 5814 5814 5813 5813 5813 5813 5814 5814 5814 5814 5814 5814 5814 5815 5815 5815 5816 5816 5817 5817 5818 5818 5818 5819 5819 5819 5820 5821 5822 5824 5827 5829 5829 5829 5829 5829 5830 5830 5830 5831 5831 5832 5832 5833 5834 5835 5835 5836 5836 5836 5837 5838 5838 5839 5840 5840 5841 5841
5804 5805 5806 5805 5804 5804 5806 5806 5806 5805 5806 5808 5810 5811 5812 5813 5813 5814 5814 5814 5813 5813 5813 5813 5813 5813 5812 5812 5812 5812 5811 5812 5812 5812 5812 5812 5812 5812 5812 5812 5813 5813 5814 5814 5815 5815 5816 5816 5816 5817 5817 5817 5817 5818 5819 5820 5823 5825 5827 5827 5827 5828 5828 5829 5829 5830 5830 5830 5831 5831 5832 5833 5834 5835 5835 5836 5836 5836 5837 5838 5838 5839 5839 5840 5841
5802 5803 5803 5803 5802 5803 5804 5806 5805 5804 5804 5805 5807 5808 5809 5810 5810 5811 5811 5811 5811 5811 5811 5811 5811 5810 5810 5810 5810 5810 5810 5810 5811 5811 5811 5811 5810 5810 5810 5810 5811 5812 5812 5813 5813 5814 5814 5814 5814 5815 5815 5816 5816 5816 5817 5819 5821 5823 5825 5825 5826 5826 5827 5828 5828 5829 5829 5829 5830 5830 5831 5832 5833 5834 5835 5835 5836 5836 5836 5837 5837 5838 5838 5839 5840
5801 5801 5802 5802 5802 5803 5804 5805 5804 5804 5803 5803 5805 5806 5807 5807 5808 5808 5809 5809 5809 5809 5809 5809 5808 5808 5808 5808 5808 5809 5809 5809 5809 5809 5809 5809 5809 5808 5808 5808 5809 5810 5811 5811 5811 5812 5812 5812 5813 5813 5814 5814 5814 5814 5815 5817 5819 5821 5823 5823 5824 5825 5825 5826 5827 5827 5828 5828 5828 5829 5829 5830 5831 5833 5834 5835 5835 5835 5836 5836 5837 5837 5838 5838 5839
5800 5801 5802 5802 5802 5803 5804 5805 5804 5803 5802 5801 5802 5803 5804 5804 5805 5806 5806 5806 5806 5806 5806 5806 5806 5806 5806 5807 5807 5807 5807 5807 5807 5807 5807 5807 5807 5807 5806 5807 5808 5808 5809 5809 5810 5810 5810 5811 5811 5812 5812 5812 5812 5813 5813 5814 5816 5819 5820 5821 5822 5823 5824 5824 5825 5826 5826 5827 5827 5828 5828 5828 5829 5831 5832 5833 5834 5835 5835 5835 5836 5837 5837 5837 5838
5798 5800 5801 5802 5802 5802 5803 5803 5802 5801 5801 5800 5800 5801 5801 5802 5803 5804 5804 5804 5804 5804 5804 5804 5804 5804 5805 5805 5805 5805 5805 5805 5805 5805 5805 5805 5805 5805 5805 5805 5806 5807 5807 5807 5808 5808 5809 5810 5810 5810 5810 5810 5810 5811 5811 5812 5814 5816 5818 5819 5820 5821 5822 5823 5823 5824 5825 5825 5825 5826 5827 5827 5828 5829 5831 5832 5833 5833 5834 5835 5835 5836 5836 5837 5837
5797 5798 5799 5800 5800 5800 5800 5800 5799 5799 5799 5799 5799 5800 5800 5801 5801 5802 5802 5802 5802 5802 5802 5803 5803 5803 5803 5803 5803 5803 5803 5803 5803 5802 5803 5803 5803 5803 5803 5803 5804 5805 5805 5806 5806 5807 5807 5808 5808 5809 5808 5808 5808 5809 5809 5810 5812 5814 5815 5817 5818 5819 5820 5821 5822 5822 5823 5823 5824 5825 5825 5826 5826 5827 5828 5830 5831 5832 5833 5833 5834 5834 5835 5836 5836
5795 5796 5797 5797 5797 5798 5798 5798 5798 5798 5798 5798 5798 5799 5799 5800 5800 5800 5800 5800 5800 5800 5801 5801 5801 5801 5801 5801 5801 5801 5801 5801 5800 5800 5801 5801 5801 5801 5801 5801 5802 5803 5803 5804 5805 5805 5805 5806 5807 5807 5807 5807 5807 5807 5807 5808 5810 5811 5813 5814 5816 5817 5817 5818 5819 5820 5821 5821 5822 5823 5824 5824 5824 5825 5826 5827 5829 5830 5831 5832 5832 5833 5834 5834 5835
5794 5794 5794 5795 5795 5795 5795 5795 5796 5796 5796 5797 5798 5798 5798 5799 5799 5799 5799 5799 5799 5799 5799 5798 5798 5798 5798 5798 5798 5799 5798 5798 5798 5798 5799 5799 5799 5799 5800 5800 5801 5801 5802 5803 5803 5803 5804 5804 5805 5805 5805 5805 5805 5805 5806 5806 5808 5809 5811 5812 5814 5814 5815 5815 5816 5817 5818 5819 5819 5820 5821 5822 5823 5823 5824 5825 5826 5827 5829 5830 5831 5831 5832 5833 5833
5792 5792 5792 5792 5792 5792 5793 5793 5793 5794 5794 5796 5797 5797 5797 5797 5797 5798 5798 5798 5797 5797 5796 5796 5796 5796 5797 5797 5796 5796 5796 5796 5796 5796 5796 5797 5797 5798 5798 5799 5799 5799 5800 5801 5802 5802 5802 5802 5803 5803 5804 5804 5804 5804 5804 5805 5806 5807 5809 5810 5811 5812 5812 5813 5814 5815 5815 5816 5816 5817 5819 5820 5820 5821 5822 5823 5824 5825 5826 5828 5829 5829 5830 5831 5832
5790 5791 5790 5790 5790 5791 5791 5791 5791 5791 5792 5794 5795 5795 5795 5795 5796 5796 5796 5796 5795 5794 5794 5793 5794 5794 5794 5794 5794 5794 5794 5794 5794 5794 5794 5795 5795 5796 5796 5797 5797 5798 5799 5800 5800 5801 5801 5801 5801 5801 5802 5802 5802 5803 5803 5804 5804 5805 5807 5809 5810 5810 5810 5811 5811 5812 5812 5812 5813 5814 5815 5816 5818 5818 5819 5820 5821 5822 5823 5825 5826 5827 5828 5829 5830
5789 5789 5789 5789 5789 5790 5790 5789 5789 5790 5791 5792 5793 5793 5793 5794 5794 5793 5793 5793 5792 5792 5791 5791 5792 5792 5792 5792 5792 5792 5792 5791 5791 5791 5792 5793 5793 5794 5794 5795 5795 5796 5797 5798 5799 5800 5800 5800 5800 5800 5800 5801 5801 5802 5802 5802 5803 5804 5805 5807 5807 5808 5808 5808 5809 5809 5809 5810 5810 5811 5812 5813 5814 5815 5816 5817 5819 5820 5821 5822 5823 5824 5825 5827 5828
5788 5788 5788 5788 5789 5789 5788 5788 5788 5789 5790 5791 5792 5792 5792 5792 5791 5791 5791 5790 5789 5789 5789 5790 5790 5790 5790 5790 5790 5790 5790 5789 5789 5789 5789 5790 5791 5791 5792 5793 5793 5794 5795 5796 5797 5798 5798 5798 5798 5799 5799 5799 5800 5800 5801 5801 5801 5802 5803 5804 5805 5805 5806 5806 5806 5807 5807 5807 5808 5808 5809 5810 5811 5812 5813 5814 5816 5817 5818 5819 5820 5822 5823 5824 5826
5786 5787 5787 5788 5788 5787 5787 5787 5789 5790 5790 5790 5791 5791 5790 5790 5789 5789 5789 5788 5787 5787 5788 5788 5788 5788 5788 5789 5789 5789 5788 5787 5787 5787 5788 5788 5789 5789 5789 5790 5791 5792 5793 5794 5795 5796 5796 5797 5797 5797 5797 5798 5798 5798 5799 5799 5800 5800 5801 5802 5802 5803 5803 5804 5804 5804 5804 5805 5806 5806 5806 5807 5808 5809 5810 5811 5813 5814 5816 5817 5818 5819 5821 5822 5823
5785 5786 5786 5787 5786 5786 5787 5788 5789 5789 5789 5789 5789 5789 5789 5788 5788 5787 5787 5786 5786 5786 5786 5787 5787 5787 5787 5787 5787 5787 5787 5786 5785 5786 5786 5787 5787 5787 5787 5788 5789 5790 5791 5792 5793 5793 5794 5794 5795 5796 5796 5796 5796 5796 5797 5797 5798 5798 5799 5799 5800 5800 5801 5801 5802 5802 5802 5803 5803 5803 5804 5804 5805 5806 5807 5808 5810 5811 5813 5814 5815 5817 5818 5819 5820
5783 5784 5785 5785 5785 5785 5786 5787 5788 5788 5788 5787 5787 5787 5787 5787 5786 5785 5785 5785 5785 5785 5785 5786 5786 5786 5786 5785 5786 5785 5785 5785 5785 5785 5785 5785 5785 5785 5786 5787 5787 5788 5789 5790 5790 5791 5792 5792 5793 5794 5794 5794 5794 5794 5795 5795 5796 5796 5797 5797 5798 5798 5798 5798 5799 5799 5800 5800 5801 5801 5801 5802 5802 5803 5804 5805 5807 5808 5810 5811 5813 5814 5815 5816 5817
5781 5781 5782 5783 5783 5783 5784 5785 5786 5786 5786 5786 5785 5786 5785 5785 5784 5784 5783 5783 5783 5783 5783 5784 5785 5785 5785 5784 5784 5784 5784 5784 5784 5784 5784 5784 5784 5784 5785 5785 5785 5786 5787 5788 5788 5789 5790 5790 5791 5792 5792 5793 5793 5793 5793 5793 5794 5794 5795 5795 5796 5796 5796 5796 5796 5797 5797 5798 5798 5799 5799 5799 5799 5800 5801 5802 5803 5805 5807 5808 5810 5811 5812 5813 5814
5779 5779 5779 5779 5780 5781 5782 5783 5784 5784 5784 5784 5783 5783 5783 5783 5782 5782 5782 5782 5782 5782 5782 5782 5783 5783 5783 5783 5782 5783 5783 5783 5783 5783 5783 5783 5782 5783 5783 5783 5783 5784 5785 5786 5786 5787 5787 5788 5789 5790 5790 5791 5791 5791 5791 5791 5792 5793 5793 5793 5794 5794 5794 5794 5794 5795 5795 5795 5796 5796 5796 5796 5797 5798 5798 5799 5801 5802 5804 5805 5807 5808 5809 5810 5811
5778 5778 5778 5777 5778 5779 5781 5781 5782 5782 5782 5782 5782 5781 5781 5781 5781 5780 5780 5781 5781 5781 5781 5781 5781 5781 5781 5781 5781 5781 5782 5782 5782 5782 5782 5782 5782 5781 5781 5781 5781 5781 5782 5783 5783 5784 5785 5786 5787 5787 5788 5789 5789 5789 5790 5790 5790 5791 5791 5792 5792 5792 5792 5792 5793 5793 5793 5792 5793 5794 5794 5794 5795 5795 5796 5797 5798 5799 5801 5802 5804 5805 5806 5808 5808
5776 5777 5777 5777 5777 5778 5779 5780 5781 5781 5780 5780 5780 5780 5780 5780 5779 5779 5779 5779 5779 5780 5780 5780 5779 5780 5780 5780 5780 5780 5780 5781 5781 5781 5781 5781 5781 5780 5779 5779 5779 5780 5780 5781 5781 5782 5783 5783 5784 5786 5786 5787 5787 5787 5788 5788 5789 5789 5790 5790 5790 5790 5789 5790 5792 5792 5791 5790 5790 5791 5791 5792 5792 5793 5793 5794 5795 5796 5798 5799 5801 5802 5804 5805 5806
5776 5776 5776 5776 5776 5777 5778 5779 5779 5779 5779 5779 5779 5778 5778 5778 5778 5778 5779 5779 5778 5778 5778 5778 5778 5778 5779 5778 5778 5778 5779 5779 5780 5781 5780 5780 5780 5778 5778 5778 5778 5780 5779 5779 5779 5780 5781 5782 5782 5783 5784 5785 5785 5785 5786 5786 5787 5788 5788 5788 5788 5788 5787 5787 5789 5790 5789 5788 5788 5788 5789 5789 5790 5790 5790 5791 5792 5793 5794 5796 5797 5799 5800 5802 5803
5774 5774 5774 5775 5775 5776 5777 5777 5777 5778 5778 5778 5778 5777 5776 5776 5777 5777 5778 5778 5778 5777 5777 5777 5778 5777 5777 5777 5777 5777 5777 5778 5778 5779 5779 5779 5778 5777 5777 5778 5778 5779 5778 5778 5779 5779 5780 5780 5781 5781 5782 5783 5784 5784 5784 5784 5785 5786 5786 5786 5786 5786 5785 5785 5786 5787 5787 5786 5785 5786 5787 5787 5787 5787 5788 5788 5789 5790 5791 5793 5794 5795 5797 5798 5799
5773 5773 5773 5774 5774 5775 5775 5775 5775 5776 5776 5777 5776 5776 5775 5775 5775 5775 5776 5776 5776 5776 5776 5776 5776 5776 5776 5775 5775 5775 5775 5776 5776 5777 5777 5777 5777 5776 5776 5777 5777 5777 5777 5777 5778 5778 5778 5778 5779 5780 5780 5781 5781 5782 5782 5782 5783 5783 5784 5784 5784 5784 5784 5783 5784 5784 5785 5784 5783 5784 5785 5785 5785 5785 5786 5786 5787 5788 5789 5790 5791 5792 5793 5794 5795
5771 5772 5773 5773 5773 5774 5774 5774 5774 5775 5775 5775 5775 5774 5773 5773 5773 5773 5774 5774 5774 5774 5774 5775 5775 5775 5774 5774 5774 5773 5773 5774 5775 5775 5775 5775 5775 5775 5775 5776 5776 5776 5776 5776 5776 5776 5776 5776 5776 5777 5778 5779 5779 5780 5780 5780 5781 5781 5782 5782 5782 5782 5782 5781 5781 5782 5782 5782 5781 5781 5782 5782 5783 5783 5784 5784 5785 5786 5786 5787 5788 5789 5790 5791 5792
5770 5770 5771 5771 5772 5772 5772 5772 5773 5774 5773 5773 5773 5773 5772 5771 5771 5771 5772 5772 5772 5771 5772 5772 5773 5773 5773 5773 5773 5772 5772 5772 5773 5773 5773 5773 5773 5773 5773 5774 5774 5774 5775 5775 5774 5773 5774 5774 5775 5776 5777 5777 5777 5777 5778 5778 5779 5780 5780 5780 5780 5780 5779 5779 5779 5779 5779 5780 5779 5779 5780 5780 5781 5782 5782 5782 5782 5782 5783 5784 5785 5786 5787 5788 5789
5767 5768 5768 5769 5770 5770 5771 5772 5772 5772 5772 5772 5771 5771 5771 5770 5769 5769 5770 5771 5770 5770 5770 5770 5771 5771 5772 5772 5772 5771 5771 5771 5770 5770 5771 5771 5771 5771 5771 5772 5772 5772 5772 5772 5772 5772 5772 5773 5773 5775 5775 5776 5775 5775 5775 5776 5777 5778 5778 5778 5778 5777 5777 5777 5776 5776 5777 5777 5777 5778 5778 5778 5779 5780 5780 5780 5780 5780 5780 5781 5782 5783 5783 5784 5786
5765 5766 5766 5767 5768 5769 5770 5770 5771 5771 5770 5770 5770 5769 5769 5769 5768 5767 5768 5769 5769 5769 5770 5769 5769 5769 5769 5770 5770 5770 5770 5769 5769 5768 5768 5768 5769 5769 5769 5769 5770 5770 5770 5770 5770 5771 5771 5771 5772 5773 5773 5773 5773 5772 5773 5774 5774 5775 5776 5776 5776 5775 5775 5775 5774 5774 5774 5775 5775 5776 5776 5776 5777 5777 5778 5778 5777 5777 5778 5778 5779 5780 5780 5781 5782
5763 5764 5764 5765 5766 5767 5768 5768 5768 5768 5768 5768 5768 5767 5767 5767 5766 5766 5767 5767 5767 5768 5768 5768 5768 5768 5768 5768 5768 5768 5767 5767 5767 5767 5767 5767 5767 5767 5767 5768 5768 5768 5769 5769 5769 5769 5769 5770 5769 5770 5770 5771 5770 5769 5770 5772 5772 5773 5773 5773 5774 5773 5773 5773 5772 5772 5772 5772 5773 5773 5773 5774 5774 5774 5775 5775 5774 5774 5775 5776 5777 5778 5778 5778 5778
5761 5762 5762 5762 5763 5764 5765 5765 5765 5765 5766 5766 5766 5766 5765 5765 5765 5765 5765 5765 5765 5766 5766 5766 5766 5766 5766 5765 5765 5765 5765 5765 5765 5765 5765 5765 5765 5765 5766 5766 5766 5767 5767 5767 5767 5767 5767 5768 5767 5767 5768 5768 5768 5767 5767 5768 5768 5770 5771 5770 5771 5770 5770 5770 5770 5770 5770 5770 5770 5770 5770 5770 5771 5771 5771 5771 5771 5772 5772 5773 5775 5775 5775 5775 5774
5759 5760 5760 5760 5761 5762 5762 5762 5763 5763 5763 5764 5764 5764 5764 5763 5763 5763 5764 5764 5764 5764 5764 5764 5764 5764 5764 5763 5763 5762 5762 5762 5762 5762 5763 5763 5763 5763 5764 5764 5764 5764 5765 5765 5765 5765 5765 5766 5765 5765 5765 5766 5766 5765 5765 5765 5765 5767 5767 5767 5767 5768 5768 5768 5768 5768 5768 5768 5768 5768 5768 5768 5768 5768 5768 5768 5769 5769 5770 5770 5771 5771 5771 5770 5770
5758 5758 5759 5759 5760 5760 5761 5761 5761 5762 5762 5762 5762 5762 5762 5761 5761 5761 5762 5762 5762 5762 5761 5761 5761 5761 5762 5761 5761 5760 5760 5759 5759 5759 5760 5760 5761 5761 5761 5761 5762 5762 5763 5763 5763 5763 5763 5764 5763 5763 5763 5763 5764 5764 5764 5764 5764 5765 5765 5765 5765 5765 5765 5765 5765 5765 5765 5765 5765 5765 5765 5765 5765 5765 5765 5765 5766 5767 5767 5767 5767 5767 5767 5767 5767
5757 5757 5757 5758 5758 5759 5760 5760 5760 5760 5760 5759 5759 5759 5760 5759 5759 5759 5759 5759 5759 5758 5758 5758 5758 5758 5758 5758 5758 5758 5757 5756 5756 5756 5757 5757 5758 5758 5758 5759 5759 5760 5761 5761 5761 5761 5761 5761 5761 5761 5761 5761 5762 5762 5762 5762 5762 5763 5763 5763 5763 5763 5763 5762 5762 5762 5762 5762 5762 5762 5762 5762 5762 5762 5762 5762 5763 5764 5764 5764 5764 5764 5764 5764 5765
5755 5755 5756 5756 5757 5757 5758 5758 5758 5757 5757 5756 5756 5756 5757 5757 5756 5756 5756 5756 5755 5754 5754 5755 5755 5755 5755 5755 5755 5755 5754 5754 5753 5753 5754 5754 5754 5755 5755 5756 5756 5757 5758 5758 5759 5759 5759 5759 5759 5759 5759 5759 5759 5760 5760 5760 5761 5761 5760 5760 5760 5760 5760 5760 5760 5759 5759 5759 5759 5759 5759 5759 5759 5759 5759 5759 5760 5760 5761 5761 5761 5761 5761 5761 5762